SL-14 DEB, 44575

Orbit data source: Space-Track

SL-14 DEB, 44575 is space debris in LEO originally from a launch on Thu, 24 Jun 1993 UTC launched from the Plesetsk Missile And Space Complex (PKMTR). Debris objects in space refer to the collection of defunct objects orbiting the Earth. Examples of debris include non-operational satellites, rocket bodies, and fragments generated from explosions, collisions, or faulty payload assembly.

Loading next visibility...
Identifier
44575, 1993-038H
Orbit
LEO
Country
Flag of CISCIS
Related business
Manufacturer
Unknown
Mission
Spacecraft
Bus & Motor
Unknown
Mass
Unknown
Launch date (UTC)
1993-06-24 (33 years ago)
Launch vehicle
Unknown
Launch site
Plesetsk Missile And Space Complex (PKMTR)
Object type
Payload
Rocket body
Debris
Shape & HBR
Unknown shape, 0.1 m
Radar Cross Section
Small (<0.1 m²)

Expand to show TLE details & history
Last TLE update: 13 hours ago

TLE from 13 hours ago
0 SL-14 DEB
1 44575U 93038H   26125.39874531  .00000050  00000-0  24431-3 0  9996
2 44575  82.5897  16.4461 0046739  59.1564 301.4109 12.54903582430214
Epoch: 2026-05-05T09:34Z
TLE epoch observation values (Epoch: 2026-05-05T09:34:11.594Z)
Latitude
-0.00003°
Longitude
9.62363°
Altitude
1,427.838 km
Speed
7.156 km/s
True Right ascension
01h 05m 47s
True Declination
0° 00' 00"
Sunlit
Object was in daylight at epoch
Visualization orbit readout
Latitude
Unknown
Longitude
Unknown
Altitude
Unknown
Speed
Unknown
Apparent Right ascension
Unknown
Apparent Declination
Unknown
Sunlit
N/A
Visualization observer readout
Local Sidereal Time
06:58:14
Azimuth
Unknown
Elevation
Unknown
Doppler factor
Unknown
Orbital elements
Apogee altitude
1,477.93 km
Perigee altitude
1,404.834 km
Semi-major axis
7,819.519 km
Eccentricity
0.00467
Inclination
82.5897°
RAAN
16.4461°
Arg. of periapsis
59.1564°
True anomaly
300.95241°
Mean anomaly
301.4109°
Eccentric anomaly
301.18179°
Mean motion
3.13887 °/min
Orbital period
114.69 mins
BSTAR
0.00024431
Loading maneuver chart data...
Computing Atmospheric mass density...
Loading historical data...
Loading historical data...
Loading historical data...
Loading historical data...
Loading historical data...
Loading historical data...
Loading historical data...

Documentation

Showing up to 5 results
|